Time,TemperatureF,DewpointF,PressureIn,WindDirection,WindDirectionDegrees,WindSpeedMPH,WindSpeedGustMPH,Humidity,HourlyPrecipIn,Conditions,Clouds,dailyrainin,SoftwareType,DateUTC
2013-01-09 00:11:00,48.2,47.0,30.39,NNW,347,0.0,0.0,95,0.00,,,0.00,weatherlink.com 1.10,2013-01-09 05:11:00,
2013-01-09 00:26:00,48.2,47.0,30.39,North,352,1.0,1.0,94,0.00,,,0.00,weatherlink.com 1.10,2013-01-09 05:26:00,
2013-01-09 00:41:00,48.0,46.0,30.39,North,352,0.0,1.0,94,0.00,,,0.00,weatherlink.com 1.10,2013-01-09 05:41:00,
2013-01-09 00:56:00,48.8,48.0,30.39,SE,138,1.0,3.0,95,0.00,,,0.00,weatherlink.com 1.10,2013-01-09 05:56:00,
2013-01-09 01:11:00,49.7,48.0,30.40,East,84,0.0,1.0,95,0.00,,,0.00,weatherlink.com 1.10,2013-01-09 06:11:00,
2013-01-09 01:26:00,49.8,49.0,30.40,North,7,0.0,1.0,95,0.00,,,0.00,weatherlink.com 1.10,2013-01-09 06:26:00,
2013-01-09 01:41:00,49.9,48.0,30.41,North,6,0.0,1.0,94,0.00,,,0.00,weatherlink.com 1.10,2013-01-09 06:41:00,
2013-01-09 01:56:00,50.3,49.0,30.40,SE,124,0.0,1.0,94,0.00,,,0.00,weatherlink.com 1.10,2013-01-09 06:56:00,
2013-01-09 02:11:00,50.2,49.0,30.40,North,360,2.0,2.0,94,0.00,,,0.00,weatherlink.com 1.10,2013-01-09 07:11:00,
2013-01-09 02:26:00,49.9,48.0,30.40,North,360,0.0,1.0,94,0.00,,,0.00,weatherlink.com 1.10,2013-01-09 07:26:00,
2013-01-09 02:41:00,50.0,48.0,30.40,ESE,116,1.0,2.0,94,0.00,,,0.00,weatherlink.com 1.10,2013-01-09 07:41:00,
2013-01-09 02:56:00,51.1,50.0,30.40,SW,228,1.0,3.0,95,0.00,,,0.00,weatherlink.com 1.10,2013-01-09 07:56:00,
2013-01-09 03:11:00,51.4,50.0,30.39,SSE,149,1.0,2.0,94,0.00,,,0.00,weatherlink.com 1.10,2013-01-09 08:11:00,
2013-01-09 03:26:00,51.3,49.0,30.39,SE,139,0.0,1.0,93,0.00,,,0.00,weatherlink.com 1.10,2013-01-09 08:26:00,
2013-01-09 03:41:00,51.4,50.0,30.40,ENE,72,1.0,2.0,93,0.00,,,0.00,weatherlink.com 1.10,2013-01-09 08:41:00,
2013-01-09 03:56:00,51.6,50.0,30.40,ENE,72,0.0,1.0,94,0.00,,,0.00,weatherlink.com 1.10,2013-01-09 08:56:00,
2013-01-09 04:12:00,51.8,50.0,30.40,SE,127,1.0,1.0,93,0.00,,,0.00,weatherlink.com 1.10,2013-01-09 09:12:00,
2013-01-09 04:27:00,51.8,50.0,30.40,NNW,339,1.0,1.0,93,0.00,,,0.00,weatherlink.com 1.10,2013-01-09 09:27:00,
2013-01-09 04:42:00,51.9,50.0,30.40,NNW,340,0.0,2.0,93,0.00,,,0.00,weatherlink.com 1.10,2013-01-09 09:42:00,
2013-01-09 04:57:00,51.7,50.0,30.40,West,271,0.0,1.0,93,0.00,,,0.00,weatherlink.com 1.10,2013-01-09 09:57:00,
2013-01-09 05:12:00,51.6,50.0,30.40,West,271,0.0,1.0,93,0.00,,,0.00,weatherlink.com 1.10,2013-01-09 10:12:00,
2013-01-09 05:27:00,50.5,49.0,30.40,NNW,342,0.0,1.0,93,0.00,,,0.00,weatherlink.com 1.10,2013-01-09 10:27:00,
2013-01-09 05:42:00,50.1,48.0,30.41,NNW,342,0.0,1.0,93,0.00,,,0.00,weatherlink.com 1.10,2013-01-09 10:42:00,
2013-01-09 05:57:00,50.1,49.0,30.41,NNW,342,0.0,1.0,94,0.00,,,0.00,weatherlink.com 1.10,2013-01-09 10:57:00,
2013-01-09 06:12:00,49.9,48.0,30.41,NNW,342,0.0,0.0,94,0.00,,,0.00,weatherlink.com 1.10,2013-01-09 11:12:00,
2013-01-09 06:27:00,49.7,48.0,30.41,NNW,342,0.0,1.0,94,0.00,,,0.00,weatherlink.com 1.10,2013-01-09 11:27:00,
2013-01-09 06:42:00,49.7,48.0,30.41,NNW,341,0.0,1.0,94,0.00,,,0.00,weatherlink.com 1.10,2013-01-09 11:42:00,
2013-01-09 06:57:00,49.6,48.0,30.42,NNW,342,0.0,1.0,94,0.00,,,0.00,weatherlink.com 1.10,2013-01-09 11:57:00,
2013-01-09 07:12:00,49.7,48.0,30.42,NNW,342,0.0,0.0,94,0.00,,,0.00,weatherlink.com 1.10,2013-01-09 12:12:00,
2013-01-09 07:27:00,49.7,48.0,30.42,NNW,342,0.0,0.0,94,0.00,,,0.00,weatherlink.com 1.10,2013-01-09 12:27:00,
2013-01-09 07:42:00,49.9,48.0,30.43,NNW,342,0.0,1.0,94,0.00,,,0.00,weatherlink.com 1.10,2013-01-09 12:42:00,
2013-01-09 07:57:00,50.0,48.0,30.43,NNW,342,0.0,1.0,94,0.00,,,0.00,weatherlink.com 1.10,2013-01-09 12:57:00,
2013-01-09 08:12:00,50.4,49.0,30.44,NNW,342,0.0,0.0,95,0.00,,,0.00,weatherlink.com 1.10,2013-01-09 13:12:00,
2013-01-09 08:27:00,50.5,49.0,30.44,NNW,342,0.0,0.0,95,0.00,,,0.00,weatherlink.com 1.10,2013-01-09 13:27:00,
2013-01-09 08:42:00,50.9,50.0,30.45,NNW,342,0.0,0.0,95,0.00,,,0.00,weatherlink.com 1.10,2013-01-09 13:42:00,
2013-01-09 08:57:00,50.9,49.0,30.45,NNW,341,0.0,0.0,94,0.00,,,0.00,weatherlink.com 1.10,2013-01-09 13:57:00,
2013-01-09 09:12:00,51.0,49.0,30.46,NNW,341,0.0,0.0,94,0.00,,,0.00,weatherlink.com 1.10,2013-01-09 14:12:00,
2013-01-09 09:27:00,51.3,50.0,30.46,NNW,342,0.0,0.0,94,0.01,,,0.01,weatherlink.com 1.10,2013-01-09 14:27:00,
2013-01-09 09:42:00,51.3,50.0,30.46,NNW,342,0.0,1.0,94,0.01,,,0.01,weatherlink.com 1.10,2013-01-09 14:42:00,
2013-01-09 09:57:00,52.1,51.0,30.47,NNW,342,0.0,0.0,95,0.01,,,0.01,weatherlink.com 1.10,2013-01-09 14:57:00,
2013-01-09 10:12:00,52.5,51.0,30.47,NNW,342,0.0,1.0,95,0.01,,,0.01,weatherlink.com 1.10,2013-01-09 15:12:00,
2013-01-09 10:27:00,52.8,51.0,30.47,NNW,342,0.0,1.0,94,0.00,,,0.01,weatherlink.com 1.10,2013-01-09 15:27:00,
2013-01-09 10:42:00,52.9,51.0,30.47,NNW,342,0.0,1.0,94,0.00,,,0.01,weatherlink.com 1.10,2013-01-09 15:42:00,
2013-01-09 10:57:00,53.6,52.0,30.47,NNW,342,0.0,1.0,95,0.00,,,0.01,weatherlink.com 1.10,2013-01-09 15:57:00,
2013-01-09 11:12:00,54.0,53.0,30.46,West,278,0.0,0.0,95,0.00,,,0.01,weatherlink.com 1.10,2013-01-09 16:12:00,
2013-01-09 11:27:00,53.9,52.0,30.45,WSW,248,0.0,0.0,94,0.00,,,0.01,weatherlink.com 1.10,2013-01-09 16:27:00,
2013-01-09 11:42:00,54.5,53.0,30.45,NNW,347,1.0,1.0,94,0.00,,,0.01,weatherlink.com 1.10,2013-01-09 16:42:00,
2013-01-09 11:57:00,54.7,53.0,30.45,NNW,347,0.0,0.0,94,0.00,,,0.01,weatherlink.com 1.10,2013-01-09 16:57:00,
2013-01-09 12:12:00,54.5,53.0,30.43,NNW,347,0.0,0.0,94,0.00,,,0.01,weatherlink.com 1.10,2013-01-09 17:12:00,
2013-01-09 12:27:00,54.5,53.0,30.43,NNW,347,0.0,1.0,94,0.00,,,0.01,weatherlink.com 1.10,2013-01-09 17:27:00,
2013-01-09 12:42:00,54.8,53.0,30.43,NNW,347,0.0,0.0,94,0.00,,,0.01,weatherlink.com 1.10,2013-01-09 17:42:00,
2013-01-09 12:57:00,55.4,54.0,30.42,NNW,347,0.0,1.0,94,0.00,,,0.01,weatherlink.com 1.10,2013-01-09 17:57:00,
2013-01-09 13:12:00,56.8,55.0,30.41,NNE,21,1.0,2.0,94,0.00,,,0.01,weatherlink.com 1.10,2013-01-09 18:12:00,
2013-01-09 13:27:00,57.5,56.0,30.41,North,356,0.0,0.0,93,0.00,,,0.01,weatherlink.com 1.10,2013-01-09 18:27:00,
2013-01-09 13:42:00,57.7,55.0,30.41,North,357,0.0,0.0,92,0.00,,,0.01,weatherlink.com 1.10,2013-01-09 18:42:00,
2013-01-09 13:57:00,57.6,55.0,30.40,North,356,1.0,1.0,91,0.00,,,0.01,weatherlink.com 1.10,2013-01-09 18:57:00,
2013-01-09 14:12:00,57.3,55.0,30.40,North,357,0.0,0.0,92,0.00,,,0.01,weatherlink.com 1.10,2013-01-09 19:12:00,
2013-01-09 14:27:00,58.0,56.0,30.40,North,357,0.0,0.0,92,0.00,,,0.01,weatherlink.com 1.10,2013-01-09 19:27:00,
2013-01-09 14:42:00,58.7,56.0,30.41,North,357,0.0,1.0,91,0.00,,,0.01,weatherlink.com 1.10,2013-01-09 19:42:00,
2013-01-09 14:57:00,58.4,56.0,30.40,NNE,29,0.0,1.0,90,0.00,,,0.01,weatherlink.com 1.10,2013-01-09 19:57:00,
2013-01-09 15:12:00,58.0,55.0,30.41,NNE,29,0.0,0.0,91,0.00,,,0.01,weatherlink.com 1.10,2013-01-09 20:12:00,
2013-01-09 15:27:00,57.6,55.0,30.40,NNE,29,0.0,0.0,91,0.00,,,0.01,weatherlink.com 1.10,2013-01-09 20:27:00,
2013-01-09 15:42:00,57.8,56.0,30.41,NNE,27,1.0,1.0,92,0.00,,,0.01,weatherlink.com 1.10,2013-01-09 20:42:00,
2013-01-09 15:57:00,58.2,56.0,30.41,NNE,29,0.0,1.0,92,0.00,,,0.01,weatherlink.com 1.10,2013-01-09 20:57:00,
2013-01-09 16:12:00,58.4,56.0,30.41,NNE,30,0.0,0.0,91,0.00,,,0.01,weatherlink.com 1.10,2013-01-09 21:12:00,
2013-01-09 16:27:00,58.2,56.0,30.41,NNE,27,0.0,1.0,92,0.00,,,0.01,weatherlink.com 1.10,2013-01-09 21:27:00,
2013-01-09 16:42:00,57.8,56.0,30.41,NNE,27,0.0,2.0,92,0.00,,,0.01,weatherlink.com 1.10,2013-01-09 21:42:00,
2013-01-09 16:58:00,57.2,55.0,30.42,North,354,0.0,1.0,92,0.00,,,0.01,weatherlink.com 1.10,2013-01-09 21:58:00,
2013-01-09 17:13:00,56.9,55.0,30.42,North,354,0.0,0.0,93,0.00,,,0.01,weatherlink.com 1.10,2013-01-09 22:13:00,
2013-01-09 17:28:00,56.3,54.0,30.42,North,354,1.0,1.0,93,0.00,,,0.01,weatherlink.com 1.10,2013-01-09 22:28:00,
2013-01-09 17:43:00,55.9,54.0,30.42,North,354,0.0,0.0,94,0.00,,,0.01,weatherlink.com 1.10,2013-01-09 22:43:00,
2013-01-09 17:58:00,55.5,54.0,30.42,North,354,0.0,1.0,94,0.00,,,0.01,weatherlink.com 1.10,2013-01-09 22:58:00,
2013-01-09 18:13:00,55.2,54.0,30.41,North,354,0.0,1.0,94,0.00,,,0.01,weatherlink.com 1.10,2013-01-09 23:13:00,
2013-01-09 18:28:00,54.8,53.0,30.41,North,354,0.0,1.0,94,0.00,,,0.01,weatherlink.com 1.10,2013-01-09 23:28:00,
2013-01-09 18:43:00,54.9,54.0,30.42,North,354,0.0,1.0,95,0.00,,,0.01,weatherlink.com 1.10,2013-01-09 23:43:00,
2013-01-09 18:58:00,54.5,53.0,30.41,North,354,0.0,0.0,95,0.00,,,0.01,weatherlink.com 1.10,2013-01-09 23:58:00,
2013-01-09 19:13:00,54.5,53.0,30.41,North,354,0.0,0.0,95,0.00,,,0.01,weatherlink.com 1.10,2013-01-10 00:13:00,
2013-01-09 19:28:00,54.0,53.0,30.41,North,354,0.0,0.0,95,0.00,,,0.01,weatherlink.com 1.10,2013-01-10 00:28:00,
2013-01-09 19:43:00,53.7,52.0,30.42,North,354,0.0,0.0,95,0.00,,,0.01,weatherlink.com 1.10,2013-01-10 00:43:00,
2013-01-09 19:58:00,53.7,52.0,30.41,North,354,1.0,2.0,95,0.00,,,0.01,weatherlink.com 1.10,2013-01-10 00:58:00,
2013-01-09 20:13:00,54.2,53.0,30.42,SE,146,0.0,1.0,95,0.00,,,0.01,weatherlink.com 1.10,2013-01-10 01:13:00,
2013-01-09 20:28:00,54.1,53.0,30.43,SE,146,0.0,1.0,95,0.00,,,0.01,weatherlink.com 1.10,2013-01-10 01:28:00,
2013-01-09 20:43:00,53.9,53.0,30.43,SW,228,0.0,1.0,95,0.01,,,0.02,weatherlink.com 1.10,2013-01-10 01:43:00,
2013-01-09 20:58:00,54.0,53.0,30.44,SW,228,0.0,1.0,95,0.02,,,0.03,weatherlink.com 1.10,2013-01-10 01:58:00,
2013-01-09 21:13:00,53.9,53.0,30.44,SW,228,0.0,1.0,95,0.02,,,0.03,weatherlink.com 1.10,2013-01-10 02:13:00,
2013-01-09 21:28:00,53.8,52.0,30.44,SW,228,0.0,1.0,95,0.03,,,0.04,weatherlink.com 1.10,2013-01-10 02:28:00,
2013-01-09 21:43:00,53.7,53.0,30.45,SW,228,0.0,1.0,96,0.02,,,0.04,weatherlink.com 1.10,2013-01-10 02:43:00,
2013-01-09 21:58:00,53.2,52.0,30.45,SW,228,0.0,1.0,95,0.01,,,0.04,weatherlink.com 1.10,2013-01-10 02:58:00,
2013-01-09 22:13:00,52.9,52.0,30.45,SW,228,0.0,1.0,95,0.01,,,0.04,weatherlink.com 1.10,2013-01-10 03:13:00,
2013-01-09 22:28:00,52.8,52.0,30.45,SW,228,0.0,0.0,96,0.00,,,0.04,weatherlink.com 1.10,2013-01-10 03:28:00,
2013-01-09 22:43:00,52.6,52.0,30.45,SW,228,0.0,1.0,96,0.00,,,0.04,weatherlink.com 1.10,2013-01-10 03:43:00,
2013-01-09 22:58:00,52.5,51.0,30.46,SW,228,0.0,0.0,96,0.00,,,0.04,weatherlink.com 1.10,2013-01-10 03:58:00,
2013-01-09 23:13:00,52.1,51.0,30.46,NNW,345,0.0,1.0,96,0.00,,,0.04,weatherlink.com 1.10,2013-01-10 04:13:00,
2013-01-09 23:28:00,52.0,51.0,30.46,NNW,344,0.0,1.0,96,0.00,,,0.04,weatherlink.com 1.10,2013-01-10 04:28:00,
2013-01-09 23:43:00,51.5,50.0,30.45,NNW,345,0.0,0.0,96,0.00,,,0.04,weatherlink.com 1.10,2013-01-10 04:43:00,
2013-01-09 23:58:00,51.3,50.0,30.46,NNW,345,0.0,0.0,96,0.00,,,0.04,weatherlink.com 1.10,2013-01-10 04:58:00,